Regional Weather Roundup
Issued by NWS

Home | Current Version | Previous Version | Text Only | Print | Product List | Glossary Off
Versions: 1 2 3 4 5 6 7 8 9 10 11 12 13 14 15 16 17 18 19 20 21 22 23 24 25 26 27 28 29 30 31 32 33 34 35 36 37 38 39 40 41 42 43 44 45 46 47 48 49 50

000
ASUS45 KCYS 221310
RWRWY

WYOMING REGIONAL WEATHER ROUNDUP
NATIONAL WEATHER SERVICE CHEYENNE WY
700 AM MDT MON SEP 22 2014

NOTE:  "FAIR" INDICATES FEW OR NO CLOUDS BELOW 12,000 FEET
WITH NO SIGNIFICANT WEATHER AND/OR OBSTRUCTIONS TO VISIBILITY.

WYZ001-221400-
YELLOWSTONE NATIONAL PARK

CITY           SKY/WX    TMP DP  RH WIND       PRES   REMARKS
LK YELLOWSTONE   N/A     46  44  93 CALM      30.29F
W YELLOWSTONE  NOT AVBL

$$
WYZ002>013-054>058-071-098>099-221400-
NORTHERN WYOMING

CITY           SKY/WX    TMP DP  RH WIND       PRES   REMARKS
JACKSON        CLOUDY    50  50 100 SW5       30.23S
CODY             N/A    N/A N/A N/A MISG        N/A
GREYBULL       CLOUDY    57  48  72 NW3       30.01F
WORLAND        PTCLDY    54  46  74 S6        30.02S
SHERIDAN       CLOUDY    52  45  77 CALM      30.00F
BUFFALO        MOCLDY    55  44  66 CALM      30.05F
GILLETTE       CLOUDY    57  41  55 S18       30.07F
HULETT         FAIR      61  41  48 MISG      30.08
NEWCASTLE      FAIR      59  37  44 E12       30.12

$$
WYZ014>020-022>026-101>103-221400-
CENTRAL WYOMING

CITY           SKY/WX    TMP DP  RH WIND       PRES   REMARKS
BIG PINEY      LGT RAIN  49  48  97 W7        30.28R FOG
PINEDALE       FOG       45  45 100 MISG      30.27S VSB 1
DUBOIS         FAIR      45  41  87 W14       30.22S
LANDER         PTCLDY    51  42  71 CALM      30.12R
RIVERTON       CLEAR     53  42  66 W9        30.12S
CASPER         PTCLDY    56  44  64 SW13      30.13F
DOUGLAS        PTCLDY    49  40  71 S3        30.14S

$$
WYZ021-027>030-104>119-221400-
SOUTHERN WYOMING

CITY           SKY/WX    TMP DP  RH WIND       PRES   REMARKS
EVANSTON       MOCLDY    47  45  93 CALM      30.27R
KEMMERER       CLOUDY    46  46 100 N3        30.28S FOG
FORT BRIDGER     N/A     46  46 100 CALM      30.30S
ROCK SPRINGS   FOG       47  47 100 CALM      30.27R VSB 1/4
DIXON          PTSUNNY   46  44  94 CALM      30.30S
RAWLINS        CLEAR     45  42  89 CALM      30.26S
SARATOGA       FAIR      54  45  71 SE7       30.28S
LARAMIE        MOCLDY    52  45  77 E5        30.28R
CHEYENNE       LGT RAIN  51  44  77 S7        30.23R
TORRINGTON     MOCLDY    54  42  64 E7        30.14S
PINE BLUFFS    PTSUNNY   55  43  62 S10       30.20R

$$


USA.gov is the U.S. government's official web portal to all federal, state and local government web resources and services.